This is the latest recevied weather packets stored in our database for station/object LU4HH-15. If no packets are shown the sender has not sent any weather packets the latest 10 day(s).
| Time | Temp. | Humidity | Pressure | Rain* | Wind** | Luminosity | Snow |
|---|---|---|---|---|---|---|---|
| 1787958550 | 16.11° C | 57% | 1020.6 hPa | - | - | - | - |
| 1787957649 | 16.11° C | 57% | 1020.4 hPa | - | - | - | - |
| 1787956747 | 16.11° C | 58% | 1020.3 hPa | - | - | - | - |
| 1787955846 | 16.11° C | 58% | 1019.9 hPa | - | - | - | - |
| 1787954946 | 16.11° C | 58% | 1019.7 hPa | - | - | - | - |
| 1787954045 | 16.11° C | 58% | 1019.5 hPa | - | - | - | - |
| 1787953143 | 16.11° C | 57% | 1019.4 hPa | - | - | - | - |
| 1787952242 | 16.67° C | 57% | 1019.4 hPa | - | - | - | - |
| 1787951341 | 16.67° C | 57% | 1019.1 hPa | - | - | - | - |
| 1787950440 | 16.67° C | 57% | 1018.8 hPa | - | - | - | - |
| 1787949539 | 16.67° C | 56% | 1018.7 hPa | - | - | - | - |
| 1787948638 | 18.33° C | 53% | 1018.4 hPa | - | - | - | - |
| 1787946788 | 16.67° C | 57% | 1018.1 hPa | - | - | - | - |
| 1787945885 | 16.67° C | 57% | 1018 hPa | - | - | - | - |
| 1787944988 | 17.22° C | 56% | 1017.9 hPa | - | - | - | - |
| 1787944088 | 17.22° C | 56% | 1017.8 hPa | - | - | - | - |
| 1787943182 | 17.22° C | 56% | 1018 hPa | - | - | - | - |
| 1787942281 | 17.22° C | 55% | 1017.9 hPa | - | - | - | - |
| 1787941381 | 17.78° C | 55% | 1018 hPa | - | - | - | - |
| 1787940479 | 17.78° C | 55% | 1018.1 hPa | - | - | - | - |
| 1787939578 | 17.78° C | 54% | 1018.1 hPa | - | - | - | - |
| 1787938677 | 17.78° C | 54% | 1018.2 hPa | - | - | - | - |
| 1787937776 | 17.78° C | 55% | 1018.4 hPa | - | - | - | - |
| 1787936875 | 17.22° C | 54% | 1018.6 hPa | - | - | - | - |
| 1787935974 | 17.22° C | 55% | 1018.7 hPa | - | - | - | - |
* Rain since midnight (hover to see other rain measurements)
** Current wind speed in m/s (hover to see current wind gust speed)